Location: Newark
(25.6108°S, 54.5803°W)
Time: 05:00:05
(UTC+00:00)

deb Explorer IX - Pass Details

Date: 05 November 2020
Orbit: 538 x 1104 km, 38.8° (Epoch: 27 November)

Event Time Altitude Azimuth Distance (km) Brightness Sun altitude
Rises 18:07:29 0° 270° (W) 3,828 ? 50.3°
Reaches altitude 10° 18:10:38 10° 261° (W) 2,812 ? 49.6°
Maximum altitude 18:16:39 33° 199° (SSW) 1,541 ? 48.2°
Drops below altitude 10° 18:22:00 10° 136° (SE) 2,478 ? 47.0°
Sets 18:24:37 0° 126° (SE) 3,316 ? 46.5°
